Regional Weather Roundup
Issued by NWS State College, PA

Home | Current Version | Previous Version | Text Only | Print | Product List | Glossary On
Versions: 1 2 3 4 5 6 7 8 9 10 11 12 13 14 15 16 17 18 19 20 21 22 23 24 25 26 27 28 29 30 31 32 33 34 35 36 37 38 39 40 41 42 43 44 45 46 47 48 49 50
000
ASUS41 KCTP 290610
RWRCTP

REGIONAL WEATHER ROUNDUP
NATIONAL WEATHER SERVICE STATE COLLEGE PA
200 AM EDT THU SEP 29 2016

Note: "fair" indicates few or no clouds below 12,000 feet with no
significant weather and/or obstructions to visibility.

* = STATION THAT DOES NOT REPORT PRECIPITATION /E.G. RAIN...SNOW...ETC/
    THUNDER OR FOG.

PAZ002>004-007>009-013>016-020>023-029>032-290700-
WESTERN PENNSYLVANIA

CITY           SKY/WX    TMP DP  RH WIND       PRES   REMARKS
ERIE           CLOUDY    64  55  72 E12       30.04S
MEADVILLE      CLOUDY    63  55  75 E10       30.04S
FRANKLIN*        N/A     63  54  72 E10G23    30.07R
NEW CASTLE     CLOUDY    64  59  83 E7        30.02R
BEAVER COUNTY  NOT AVBL
BUTLER*        CLOUDY    63  55  77 E13       30.04R
PITTSBURGH INT CLOUDY    64  60  87 SE5       30.00R
PITTSBURGH     CLOUDY    63  58  83 E5        30.00R
INDIANA*       CLOUDY    64  59  82 SE16G33   30.06S
LATROBE        CLOUDY    64  61  88 E6        30.01R
WASHINGTON CO* CLOUDY    57  52  82 CALM      30.03R
$$

PAZ004>006-010>012-017>019-024>028-033>037-041-042-045-046-049>053-290700-
CENTRAL PENNSYLVANIA

CITY           SKY/WX    TMP DP  RH WIND       PRES   REMARKS
BRADFORD       CLOUDY    58  55  90 E13       30.14R
DUBOIS         CLOUDY    59  55  87 E13G22    30.08R
CLEARFIELD     CLOUDY    59  58  96 E10       30.11S
JOHNSTOWN      CLOUDY    59  58  96 E13G23    30.07R
ALTOONA        RAIN      60  59  96 E14       30.10R
STATE COLLEGE  CLOUDY    58  56  93 E10       30.13S
WILLIAMSPORT   LGT RAIN  59  56  89 E9        30.17S
SELINSGROVE    CLOUDY    61  56  83 E10       30.17R
FT INDIANTOWN  CLOUDY    58  56  95 E12G18    30.17R
CAPITAL CITY   LGT RAIN  61  57  87 E16       30.13S
HARRISBURG     LGT RAIN  60  59  96 E15       30.13R
YORK           LGT RAIN  60  60 100 E15G23    30.11F FOG
$$

PAZ038>040-043-044-047-048-054-055-060>062-067>071-290700-
EASTERN PENNSYLVANIA

CITY           SKY/WX    TMP DP  RH WIND       PRES   REMARKS
SCRANTON       CLOUDY    56  51  84 NE12G23   30.22F
MOUNT POCONO   CLOUDY    50  49  96 E15G23    30.25R
ALLENTOWN      CLOUDY    59  52  77 E18       30.23R
QUAKERTOWN*    CLOUDY    55  54  94 E8        30.23S
READING        LGT RAIN  58  54  86 E10G18    30.19R
LANCASTER      CLOUDY    59  59 100 E16G22    30.14F
COATESVILLE    LGT RAIN  57  57 100 E18G30    30.18F
POTTSTOWN      RAIN      56  56 100 NE9       30.23R FOG
BLUE BELL      CLOUDY    55  55 100 NE7       30.20F
DOYLESTOWN     LGT RAIN  58  56  93 NE8       30.22R
WILLOW GROVE   NOT AVBL
NORTH PHILA    LGT RAIN  61  58  90 NE13      30.22S
PHILADELPHIA   LGT RAIN  61  59  93 NE13      30.20S FOG
$$




USA.gov is the U.S. government's official web portal to all federal, state and local government web resources and services.